Cleveland, TX

5:42 AM CST on February 28, 2017 (GMT -0600)
Cleveland

Weather History for K6R3 - November, 2012

Change the Weather History Date:

Wednesday, November 21, 2012

  Actual Average (KCXO) Record (KCXO)
Temperature  
Mean Temperature 62 °F -  
Max Temperature 80 °F 67 °F 82 °F (2011)
Min Temperature 44 °F 45 °F 28 °F (2006)
Degree Days  
Heating Degree Days 3    
Growing Degree Days 12 (Base 50)    
Moisture  
Dew Point 47 °F    
Average Humidity 70    
Maximum Humidity 94    
Minimum Humidity 28    
Precipitation  
Precipitation 0.00 in - - ()
Sea Level Pressure  
Sea Level Pressure 30.21 in    
Wind  
Wind Speed 1 mph (North)    
Max Wind Speed 8 mph    
Max Gust Speed -    
Visibility 9 miles    
Events Fog    
Averages and records for this station are not official NWS values.
T = Trace of Precipitation, MM = Missing Value Source: NWS Daily Summary

Daily Weather History Graph

Daily Weather History Graph

Search for Another Location

Airport or City:

Trip Planner

Search our weather history database for the weather conditions in past years. The results will help you decide how hot, cold, wet, or windy it might be!

Date:

Astronomy

Nov. 21, 2012 Rise Set
Actual Time 6:51 AM CST 5:20 PM CST
Civil Twilight 6:25 AM CST 5:46 PM CST
Nautical Twilight 5:56 AM CST 6:15 PM CST
Astronomical Twilight 5:27 AM CST 6:44 PM CST
Moon 1:14 PM CST (11/21) 12:37 AM CST (11/21)
Length of Visible Light 11h 20m
Length of Day
10h 29m
First Quarter, 62% of the Moon is Illuminated
Nov 21
First Quarter
Nov 28
Full
Dec 6
Last Quarter
Dec 13
New
Dec 19
First Quarter

Hourly Weather History & Observations

Time (CST) Temp. Dew Point Humidity Pressure Visibility Wind Dir Wind Speed Gust Speed Precip Events Conditions
12:15 AM 50.0 °F 46.4 °F 87% 30.20 in 10.0 mi Calm Calm - N/A   Clear
12:35 AM 50.0 °F 46.4 °F 87% 30.20 in 4.0 mi Calm Calm - N/A   Clear
12:55 AM 48.2 °F 46.4 °F 93% 30.20 in 5.0 mi Calm Calm - N/A   Clear
1:15 AM 50.0 °F 46.4 °F 87% 30.20 in 10.0 mi Calm Calm - N/A   Clear
1:35 AM 48.2 °F 46.4 °F 93% 30.20 in 7.0 mi Calm Calm - N/A   Scattered Clouds
1:55 AM 48.2 °F 46.4 °F 93% 30.20 in 0.5 mi Calm Calm - N/A Fog Fog
2:15 AM 46.4 °F 44.6 °F 93% 30.20 in 7.0 mi Calm Calm - N/A   Scattered Clouds
2:35 AM 48.2 °F 44.6 °F 87% 30.20 in 7.0 mi Calm Calm - N/A   Clear
2:55 AM 46.4 °F 44.6 °F 93% 30.20 in 7.0 mi Calm Calm - N/A   Clear
3:15 AM 46.4 °F 44.6 °F 93% 30.21 in 7.0 mi Calm Calm - N/A   Clear
3:35 AM 46.4 °F 44.6 °F 93% 30.21 in 7.0 mi Calm Calm - N/A   Clear
3:55 AM 46.4 °F 42.8 °F 87% 30.21 in 7.0 mi Calm Calm - N/A   Clear
4:15 AM 46.4 °F 42.8 °F 87% 30.21 in 10.0 mi Calm Calm - N/A   Clear
4:35 AM 46.4 °F 44.6 °F 93% 30.22 in 10.0 mi Calm Calm - N/A   Mostly Cloudy
4:55 AM 46.4 °F 42.8 °F 87% 30.22 in 10.0 mi Calm Calm - N/A   Mostly Cloudy
5:15 AM 46.4 °F 42.8 °F 87% 30.22 in 7.0 mi Calm Calm - N/A   Overcast
5:35 AM 46.4 °F 42.8 °F 87% 30.22 in 7.0 mi Calm Calm - N/A   Overcast
5:55 AM 44.6 °F 42.8 °F 93% 30.23 in 0.2 mi Calm Calm - N/A Fog Fog
6:15 AM 44.6 °F 42.8 °F 93% 30.23 in 2.5 mi Calm Calm - N/A   Mostly Cloudy
6:35 AM 46.4 °F 42.8 °F 87% 30.23 in 7.0 mi Calm Calm - N/A   Scattered Clouds
6:55 AM 44.6 °F 42.8 °F 93% 30.24 in 5.0 mi Calm Calm - N/A   Clear
7:15 AM 46.4 °F 44.6 °F 93% 30.25 in 4.0 mi Calm Calm - N/A   Clear
7:35 AM 48.2 °F 46.4 °F 93% 30.26 in 4.0 mi Calm Calm - N/A   Clear
7:55 AM 50.0 °F 48.2 °F 94% 30.26 in 7.0 mi Calm Calm - N/A   Clear
8:15 AM 55.4 °F 51.8 °F 88% 30.27 in 10.0 mi Calm Calm - N/A   Clear
8:35 AM 60.8 °F 55.4 °F 82% 30.27 in 10.0 mi Calm Calm - N/A   Clear
8:55 AM 62.6 °F 55.4 °F 77% 30.28 in 10.0 mi NNW 3.5 mph - N/A   Clear
9:15 AM 64.4 °F 57.2 °F 77% 30.28 in 10.0 mi North 4.6 mph - N/A   Clear
9:35 AM 68.0 °F 59.0 °F 73% 30.28 in 10.0 mi NNW 4.6 mph - N/A   Clear
9:55 AM 69.8 °F 59.0 °F 68% 30.28 in 10.0 mi North 5.8 mph - N/A   Clear
10:15 AM 73.4 °F 59.0 °F 61% 30.28 in 10.0 mi NNW 4.6 mph - N/A   Clear
10:35 AM 75.2 °F 57.2 °F 53% 30.27 in 10.0 mi NNE 8.1 mph - N/A   Clear
10:55 AM 77.0 °F 55.4 °F 47% 30.27 in 10.0 mi NNW 6.9 mph - N/A   Clear
11:15 AM 77.0 °F 55.4 °F 47% 30.26 in 10.0 mi NNW 6.9 mph - N/A   Clear
11:35 AM 78.8 °F 53.6 °F 42% 30.26 in 10.0 mi NE 5.8 mph - N/A   Clear
11:55 AM 78.8 °F 53.6 °F 42% 30.24 in 10.0 mi North 5.8 mph - N/A   Clear
12:15 PM 77.0 °F 51.8 °F 41% 30.23 in 10.0 mi ENE 3.5 mph - N/A   Clear
12:35 PM 78.8 °F 46.4 °F 32% 30.22 in 10.0 mi NW 3.5 mph - N/A   Clear
12:55 PM 78.8 °F 50.0 °F 36% 30.21 in 10.0 mi NNW 4.6 mph - N/A   Clear
1:15 PM 78.8 °F 46.4 °F 32% 30.20 in 10.0 mi NNW 3.5 mph - N/A   Clear
1:35 PM 80.6 °F 46.4 °F 30% 30.19 in 10.0 mi Calm Calm - N/A   Clear
1:55 PM 80.6 °F 46.4 °F 30% 30.18 in 10.0 mi North 3.5 mph - N/A   Clear
2:15 PM 78.8 °F 44.6 °F 30% 30.18 in 10.0 mi North 4.6 mph - N/A   Clear
2:35 PM 78.8 °F 46.4 °F 32% 30.17 in 10.0 mi North 4.6 mph - N/A   Clear
2:55 PM 77.0 °F 46.4 °F 34% 30.17 in 10.0 mi NNE 3.5 mph - N/A   Clear
3:15 PM 77.0 °F 48.2 °F 36% 30.17 in 10.0 mi NNW 4.6 mph - N/A   Clear
3:35 PM 77.0 °F 48.2 °F 36% 30.17 in 10.0 mi Calm Calm - N/A   Clear
3:55 PM 77.0 °F 44.6 °F 32% 30.17 in 10.0 mi Calm Calm - N/A   Clear
4:15 PM 77.0 °F 41.0 °F 28% 30.17 in 10.0 mi Calm Calm - N/A   Clear
4:35 PM 77.0 °F 41.0 °F 28% 30.17 in 10.0 mi Calm Calm - N/A   Clear
4:55 PM 73.4 °F 42.8 °F 33% 30.16 in 10.0 mi Calm Calm - N/A   Clear
5:15 PM 66.2 °F 46.4 °F 49% 30.17 in 10.0 mi Calm Calm - N/A   Clear
5:35 PM 62.6 °F 46.4 °F 55% 30.17 in 10.0 mi Calm Calm - N/A   Clear
5:55 PM 60.8 °F 46.4 °F 59% 30.17 in 10.0 mi Calm Calm - N/A   Clear
6:15 PM 59.0 °F 48.2 °F 67% 30.18 in 10.0 mi Calm Calm - N/A   Clear
6:35 PM 57.2 °F 48.2 °F 72% 30.18 in 10.0 mi Calm Calm - N/A   Clear
6:55 PM 55.4 °F 46.4 °F 72% 30.18 in 10.0 mi Calm Calm - N/A   Clear
7:15 PM 55.4 °F 48.2 °F 77% 30.19 in 10.0 mi Calm Calm - N/A   Clear
7:35 PM 53.6 °F 46.4 °F 77% 30.19 in 10.0 mi Calm Calm - N/A   Clear
7:55 PM 51.8 °F 46.4 °F 82% 30.19 in 10.0 mi Calm Calm - N/A   Clear
8:15 PM 51.8 °F 44.6 °F 76% 30.20 in 10.0 mi Calm Calm - N/A   Clear
8:35 PM 51.8 °F 46.4 °F 82% 30.20 in 10.0 mi Calm Calm - N/A   Clear
8:55 PM 50.0 °F 46.4 °F 87% 30.20 in 10.0 mi Calm Calm - N/A   Clear
9:15 PM 50.0 °F 44.6 °F 82% 30.21 in 10.0 mi Calm Calm - N/A   Clear
9:35 PM 50.0 °F 44.6 °F 82% 30.21 in 10.0 mi Calm Calm - N/A   Clear
9:55 PM 50.0 °F 44.6 °F 82% 30.21 in 10.0 mi Calm Calm - N/A   Clear
10:15 PM 50.0 °F 44.6 °F 82% 30.21 in 10.0 mi Calm Calm - N/A   Clear
10:35 PM 50.0 °F 46.4 °F 87% 30.21 in 10.0 mi Calm Calm - N/A   Clear
10:55 PM 50.0 °F 46.4 °F 87% 30.21 in 10.0 mi Calm Calm - N/A   Clear
11:15 PM 50.0 °F 44.6 °F 82% 30.20 in 10.0 mi Calm Calm - N/A   Clear
11:35 PM 48.2 °F 44.6 °F 87% 30.20 in 10.0 mi Calm Calm - N/A   Clear
11:55 PM 46.4 °F 42.8 °F 87% 30.20 in 10.0 mi Calm Calm - N/A   Clear